Location: Newark
(33.2833°N, 8.3333°W)
Time: 00:07:46
(UTC+00:00)

Envisat - Pass Details

Date: 19 September 2019
Orbit: 764 x 766 km, 98.1° (Epoch: 15 October)

Event Time Altitude Azimuth Distance (km) Brightness Sun altitude
Rises 19:57:02 0° 206° (SSW) 3,217 6.4 -17.9°
Reaches altitude 10° 20:00:06 10° 226° (SW) 2,296 5.9 -18.5°
Maximum altitude 20:03:22 17° 266° (W) 1,855 5.9 -19.1°
Drops below altitude 10° 20:06:38 10° 307° (NW) 2,305 6.5 -19.8°
Sets 20:09:45 0° 327° (NNW) 3,235 7.0 -20.4°
